Lanfranco Dettori

Lanfranco Dettori

Statistiques 2021

  • Courses courues : 176
  • Nb de victoires : 31
  • Nb de places : 65
  • Écart gagnant : -
  • Réussite à la gagne : 18%
  • Réussite à la place : 37%
Musique : 1p 8p 7p 2p 2p 9p 2p 11p 8p 6p 7p 1p 4p 10p 5p 2p 10p 4p
DateRangCatégorieAlloc.Dist.HippodromeChevalPoidsSpé.
16/09/21 1 Galop 7 647€ GB-CHELMSFORD Sunray Major 63 Plat
12/09/21 8 Galop 80 000€ Longchamp Tropbeau 56,5 Plat lire

Très vite en queue de peloton, a conclu convenablement.

12/09/21 7 Galop 80 000€ Longchamp Lady In France 55,5 Plat lire

Très vite à la pointe du combat, a nettement faibli pour finir.

12/09/21 2 Galop 130 000€ Longchamp Broome 58 Plat lire

Tout de suite en deuxième position, a dû s'en contenter pour finir.

12/09/21 2 Galop 600 000€ Longchamp Snowfall 55,5 Plat lire

Longtemps cinquième, a terminé honorablement mais sans jamais approcher la lauréate.

11/09/21 9 Galop 874 117€ Gb-Doncaster High Definition 58 Plat
11/09/21 2 Galop 141 764€ Gb-Doncaster Reach For The Moon 57 Plat
04/09/21 11 Galop 323 529€ Gb-Haydock Nando Parrado 58 Plat
21/08/21 8 Galop 94 117€ Gb-Sandown Indigo Girl 56,5 Plat
20/08/21 6 Galop 82 352€ Gb-York Velazquez 59,5 Plat
20/08/21 7 Galop 470 588€ Gb-York Golden Pal 61,5 Plat
20/08/21 1 Galop 176 470€ Gb-York Stradivarius 58,5 Plat
19/08/21 4 Galop 82 352€ Gb-York Star Of Emaraaty 57 Plat
19/08/21 10 Galop 82 352€ Gb-York Pennymoor 56,5 Plat
19/08/21 5 Galop 470 588€ Gb-York Loving Dream 56,5 Plat
19/08/21 2 Galop 117 647€ Gb-York Magical Morning 62 Plat
19/08/21 10 Galop 176 470€ Gb-York Outside World 57 Plat
18/08/21 4 Galop 176 470€ Gb-York Sir Lucan 57 Plat
15/08/21 1 Galop 80 000€ Deauville Free Wind 56 Plat
15/08/21 9 Galop 55 000€ Deauville Alastor 57 Plat
15/08/21 1 Galop 1 000 000€ Deauville Palace Pier 59,5 Plat lire

Après avoir attendu derrière les animateurs, a su se montrer le plus fort pour finir.

15/08/21 5 Galop 80 000€ Deauville No Limit Credit 55,5 Plat lire

Très vite en bonne position, a nettement faibli pour finir.

14/08/21 8 Galop 400 000€ Deauville Derab 58 Plat lire

N'a joué aucun rôle utile.

08/08/21 7 Galop 80 000€ Deauville Star Safari 60,5 Plat lire

Très vite aux premiers rangs, a nettement faibli pour finir.

08/08/21 12 Galop 380 000€ Deauville Campanelle 55,5 Plat lire

Très mal partie, n'a pu jouer le moindre rôle pour finir.

07/08/21 1 Galop 60 000€ Deauville Twilight Gleaming 56 Plat lire

Une des animatrices, s'est montrée courageusement la plus forte pour finir.

31/07/21 6 Galop 64 117€ Gb-Newmarket Chiasma 54,5 Plat
30/07/21 15 Galop 176 470€ Gb-Goodwood Magical Morning 60,5 Plat
29/07/21 6 Galop 705 882€ Gb-Goodwood Empress Josephine 56,5 Plat
29/07/21 2 Galop 205 882€ Gb-Goodwood Sir Lucan 58 Plat
28/07/21 7 Galop 1 176 470€ Gb-Goodwood Lope Y Fernandez 61 Plat
28/07/21 5 Galop 58 823€ Gb-Goodwood Pied Piper 57 Plat
27/07/21 7 Galop 211 764€ Gb-Goodwood Fundamental 55,5 Plat
27/07/21 1 Galop 176 470€ Gb-Goodwood Angel Bleu 58 Plat
24/07/21 5 Galop 1 029 411€ Gb-Ascot Lone Eagle 55,5 Plat
24/07/21 2 Galop 47 647€ Gb-Ascot Angel Bleu 58,5 Plat
23/07/21 4 Galop 94 117€ Gb-Ascot Indigo Girl 55 Plat
22/07/21 1 Galop 50 588€ Gb-Sandown Inspiral 57 Plat
22/07/21 4 Galop 11 764€ Gb-Sandown Dukedom 59,5 Plat
17/07/21 4 Galop 8 235€ Gb-Haydock Gal Wonder 60,5 Plat
17/07/21 1 Galop 8 235€ Gb-Haydock Albahr 61,5 Plat
16/07/21 3 Galop 35 294€ Gb-Newbury Orazio 57 Plat
16/07/21 1 Galop 41 176€ Gb-Newbury Golden Bugle 58 Plat
10/07/21 3 Galop 29 411€ Gb-Newmarket Pied Piper 58 Plat
10/07/21 14 Galop 600 882€ Gb-Newmarket Extravagant Kid 59,5 Plat
10/07/21 1 Galop 117 647€ Gb-Newmarket Motakhayyel 62 Plat
10/07/21 3 Galop 105 882€ Gb-Newmarket Dhabab 57,5 Plat
10/07/21 3 Galop 35 294€ Gb-Newmarket Star Of Emaraaty 60,5 Plat
10/07/21 6 Galop 18 700€ Ity-Naples Heartofthesea 50 Plat
09/07/21 8 Galop 29 411€ Gb-Newmarket Dulas 60,5 Plat